Terminal Aerodrome Forecast
Issued by NWS

Home | Current Version | Previous Version | Text Only | Print | Product List | Glossary On
Versions: 1 2 3 4 5 6 7 8 9 10 11 12 13 14 15 16 17 18 19 20 21 22 23 24
336
FTUS46 KMTR 231120
TAFSFO
TAF
KSFO 231120Z 2312/2418 29006KT P6SM FEW008
     FM231500 04004KT P6SM SKC
     FM232100 29015G22KT P6SM SKC
     FM240400 29012KT P6SM SKC
     FM240900 29007KT P6SM FEW008
     FM241600 28008KT P6SM SKC=

USA.gov is the U.S. government's official web portal to all federal, state and local government web resources and services.